"Pseudo-MPEC" for A10Sc4q

Created 2023 Jan 26 7:22:02 UT using Find_Orb

Click here for an explanation of pseudo-MPECs

 
 Astrometry: 
     A10Sc4q* C2023 01 20(w,eZ,\0EMPUcnP0w3M6Astrometry/c8vep,DUCRPl26Nv5!LjtM22
     A10Sc4q  C2023 01 20t)Ka0apsSFiubq?i$I5j_cgtm\B8?myOUJI.plMghi^redacted;M22
     A10Sc4q  C2023 01 20a20GaclickI0Nw(u;e=-^1,4fV7N')UnKE,f1IvY0yC8vhereL3kM22
     A10Sc4q  C2023 01 20k+xO_=\;T0v8@j=?w*PZ/dZ-V0YCV$NTforSexplanationD9q/%M22

Station data:
(M22) ATLAS South Africa, Sutherland  (S32.380156 E20.810590)  South Africa.

Orbital elements:  A10Sc4q
   Perigee 2023 Jan 21.85539 +/- 30.4 TT = 20:31:45 (JD 2459966.35539)
Epoch 2023 Jan 21.0 TT = JDT 2459965.5                           AutoNEOCP
q 45414.9726 +/- 1.7e+7             (J2000 equator)
H   31.36 G 0.15                    Peri.  313.70458 +/- 60
                                    Node   279.81900 +/- 60
e   1.4777652 +/- 0.236             Incl.    2.66253 +/- 4.5
From 4 observations 2023 Jan. 20 (15.6 min); mean residual 0".50
Residuals in arcseconds: 
230120 M22  .85+  .03+    230120 M22  .20-  .41+    
230120 M22  .95-  .30-    230120 M22  .29+  .14-    

Ephemerides (geocentric):
Date (UTC) HH   RA             Dec           delta  r     elong  mag " sig PA
---- --------  ------------   ------------  ------ ------ -----  --- --------
2023 01 26 07  00 00 06.329   +02 24 14.54  952100 .98096  55.3 25?? 128d   0
2023 01 26 08  00 00 17.249   +02 24 10.67  960037 .98094  55.3 25?? 127d   0
2023 01 26 09  00 00 27.980   +02 24 06.80  967969 .98091  55.3 25?? 127d   0
2023 01 26 10  00 00 38.527   +02 24 02.92  975895 .98089  55.3 25?? 127d   0
2023 01 26 11  00 00 48.893   +02 23 59.04  983816 .98086  55.3 25?? 127d   0
2023 01 26 12  00 00 59.084   +02 23 55.15  991731 .98083  55.3 25?? 127d   0
2023 01 26 13  00 01 09.103   +02 23 51.25  999640 .98081  55.3 25?? 127d   0
2023 01 26 14  00 01 18.955   +02 23 47.34  .00674 .98078  55.3 25?? 127d   0
2023 01 26 15  00 01 28.643   +02 23 43.43  .00679 .98076  55.2 25?? 127d   0
2023 01 26 16  00 01 38.172   +02 23 39.51  .00684 .98073  55.2 25?? 127d   0
2023 01 26 17  00 01 47.544   +02 23 35.57  .00689 .98070  55.2 25?? 127d   0
2023 01 26 18  00 01 56.763   +02 23 31.63  .00695 .98068  55.2 25?? 127d   0
2023 01 26 19  00 02 05.834   +02 23 27.68  .00700 .98065  55.2 25?? 127d   0
2023 01 26 20  00 02 14.758   +02 23 23.71  .00705 .98063  55.2 25?? 127d   0
2023 01 26 21  00 02 23.539   +02 23 19.73  .00710 .98060  55.2 25?? 127d   0
2023 01 26 22  00 02 32.181   +02 23 15.74  .00716 .98057  55.2 25?? 127d   0
2023 01 26 23  00 02 40.686   +02 23 11.74  .00721 .98055  55.2 25?? 127d   0
2023 01 27 00  00 02 49.058   +02 23 07.73  .00726 .98052  55.2 25?? 127d   0
2023 01 27 01  00 02 57.298   +02 23 03.70  .00731 .98049  55.2 25?? 126d   0
2023 01 27 02  00 03 05.411   +02 22 59.66  .00737 .98047  55.1 25?? 126d   0
2023 01 27 03  00 03 13.398   +02 22 55.60  .00742 .98044  55.1 25?? 126d   0
2023 01 27 04  00 03 21.262   +02 22 51.53  .00747 .98041  55.1 25?? 126d   0
2023 01 27 05  00 03 29.006   +02 22 47.44  .00752 .98039  55.1 26?? 126d   0
2023 01 27 06  00 03 36.632   +02 22 43.33  .00758 .98036  55.1 26?? 126d   0
2023 01 27 07  00 03 44.143   +02 22 39.21  .00763 .98033  55.1 26?? 126d   0
2023 01 27 08  00 03 51.540   +02 22 35.08  .00768 .98031  55.1 26?? 126d   0
2023 01 27 09  00 03 58.826   +02 22 30.92  .00773 .98028  55.0 26?? 126d   0
2023 01 27 10  00 04 06.004   +02 22 26.75  .00779 .98025  55.0 26?? 126d   0
2023 01 27 11  00 04 13.075   +02 22 22.56  .00784 .98023  55.0 26?? 126d   0
2023 01 27 12  00 04 20.041   +02 22 18.35  .00789 .98020  55.0 26?? 126d   0
2023 01 27 13  00 04 26.905   +02 22 14.12  .00794 .98017  55.0 26?? 126d   0
2023 01 27 14  00 04 33.668   +02 22 09.88  .00799 .98015  55.0 26?? 126d   0
2023 01 27 15  00 04 40.332   +02 22 05.61  .00805 .98012  54.9 26?? 126d   0
2023 01 27 16  00 04 46.899   +02 22 01.33  .00810 .98009  54.9 26?? 126d   0
2023 01 27 17  00 04 53.372   +02 21 57.03  .00815 .98006  54.9 26?? 126d   0
2023 01 27 18  00 04 59.751   +02 21 52.70  .00820 .98004  54.9 26?? 125d   0
2023 01 27 19  00 05 06.038   +02 21 48.35  .00825 .98001  54.9 26?? 125d   0
2023 01 27 20  00 05 12.235   +02 21 43.99  .00831 .97998  54.9 26?? 125d   0
2023 01 27 21  00 05 18.344   +02 21 39.60  .00836 .97995  54.8 26?? 125d   0
2023 01 27 22  00 05 24.366   +02 21 35.19  .00841 .97993  54.8 26?? 125d   0
2023 01 27 23  00 05 30.303   +02 21 30.76  .00846 .97990  54.8 26?? 125d   0
2023 01 28 00  00 05 36.157   +02 21 26.31  .00851 .97987  54.8 26?? 125d   0
2023 01 28 01  00 05 41.927   +02 21 21.83  .00857 .97984  54.8 26?? 125d   0
2023 01 28 02  00 05 47.617   +02 21 17.33  .00862 .97982  54.7 26?? 125d   0
2023 01 28 03  00 05 53.228   +02 21 12.81  .00867 .97979  54.7 26?? 125d   0
2023 01 28 04  00 05 58.760   +02 21 08.27  .00872 .97976  54.7 26?? 125d   0
2023 01 28 05  00 06 04.216   +02 21 03.70  .00877 .97973  54.7 26?? 125d   0
2023 01 28 06  00 06 09.596   +02 20 59.11  .00882 .97971  54.6 26?? 125d   0